Location: Sternwarte_Laufen
(47.9344°N, 12.9346°E)
Time: 15:16:44
(UTC+02:00)

ISS - Pass Details

Date: 27 March 2017
Orbit: 399 x 409 km, 51.6° (Epoch: 29 March)

Event Time Altitude Azimuth Distance (km) Brightness Sun altitude
Rises 20:13:52 0° 187° (S) 2,298 -0.1 -7.9°
Reaches altitude 10° 20:17:29 10° 144° (SE) 1,450 -1.5 -8.4°
Maximum altitude 20:18:06 10° 133° (SE) 1,426 -1.6 -8.6°
Enters shadow 20:18:28 10° 127° (SE) 1,435 -1.6 -8.6°
